Du Bois, PA

11:06 AM EDT on May 28, 2017 (GMT -0400)
Du Bois-Jefferson County

Weather History for KDUJ - March, 2014

Change the Weather History Date:

Wednesday, March 19, 2014

  Actual Average Record
Temperature  
Mean Temperature 40 °F 36 °F  
Max Temperature 47 °F 45 °F 67 °F (1968)
Min Temperature 33 °F 26 °F -6 °F (1967)
Degree Days  
Heating Degree Days 25 29  
Month to date heating degree days 629 614  
Since 1 July heating degree days 5712 5637  
Cooling Degree Days 0 0  
Month to date cooling degree days 0 0  
Year to date cooling degree days 0 0  
Moisture  
Dew Point 31 °F    
Average Humidity 72    
Maximum Humidity 92    
Minimum Humidity 52    
Precipitation  
Precipitation 0.16 in 0.11 in 1.10 in (2008)
Month to date precipitation 1.17 1.96  
Sea Level Pressure  
Sea Level Pressure 29.88 in    
Wind  
Wind Speed 11 mph (SSE)    
Max Wind Speed 21 mph    
Max Gust Speed 27 mph    
Visibility 8 miles    
Events Rain    
T = Trace of Precipitation, MM = Missing Value Source: NWS Daily Summary

Daily Weather History Graph

Daily Weather History Graph

Search for Another Location

Airport or City:

Trip Planner

Search our weather history database for the weather conditions in past years. The results will help you decide how hot, cold, wet, or windy it might be!

Date:

Astronomy

Mar. 19, 2014 Rise Set
Actual Time 7:20 AM EDT 7:26 PM EDT
Civil Twilight 6:53 AM EDT 7:54 PM EDT
Nautical Twilight 6:21 AM EDT 8:26 PM EDT
Astronomical Twilight 5:48 AM EDT 8:59 PM EDT
Moon 10:45 PM EDT (3/19) 8:43 AM EDT (3/19)
Length of Visible Light 13h 00m
Length of Day
12h 06m
Waning Gibbous, 91% of the Moon is Illuminated
Mar 19
Waning Gibbous
Mar 23
Last Quarter
Mar 30
New
Apr 7
First Quarter
Apr 15
Full

Hourly Weather History & Observations

Time (EDT) Temp. Windchill Dew Point Humidity Pressure Visibility Wind Dir Wind Speed Gust Speed Precip Events Conditions
12:56 AM 35.1 °F 26.4 °F 19.0 °F 52% 30.08 in 10.0 mi SE 12.7 mph 23.0 mph N/A   Clear
1:56 AM 35.1 °F 26.4 °F 19.9 °F 54% 30.07 in 10.0 mi SE 12.7 mph 21.9 mph N/A   Clear
2:56 AM 35.1 °F 26.9 °F 21.0 °F 57% 30.06 in 10.0 mi SSE 11.5 mph - N/A   Clear
3:56 AM 34.0 °F 24.6 °F 21.0 °F 59% 30.02 in 10.0 mi SE 13.8 mph - N/A   Clear
4:56 AM 34.0 °F 26.0 °F 21.0 °F 59% 30.03 in 10.0 mi SE 10.4 mph 20.7 mph N/A   Clear
5:56 AM 33.1 °F 24.4 °F 19.9 °F 59% 30.03 in 10.0 mi SE 11.5 mph 21.9 mph N/A   Clear
6:56 AM 33.1 °F 24.4 °F 19.9 °F 59% 30.01 in 10.0 mi SE 11.5 mph - N/A   Scattered Clouds
7:56 AM 34.0 °F 24.6 °F 21.9 °F 61% 30.00 in 10.0 mi SE 13.8 mph 21.9 mph N/A   Mostly Cloudy
8:56 AM 37.0 °F 28.9 °F 25.0 °F 62% 29.98 in 10.0 mi SE 12.7 mph 21.9 mph N/A   Overcast
9:56 AM 39.0 °F 31.8 °F 27.0 °F 62% 29.98 in 10.0 mi SE 11.5 mph 18.4 mph N/A   Overcast
10:56 AM 42.1 °F 34.9 °F 28.9 °F 60% 29.96 in 10.0 mi SE 13.8 mph 24.2 mph N/A   Overcast
11:56 AM 46.9 °F - 30.9 °F 54% 29.95 in 10.0 mi SSE 15.0 mph 23.0 mph N/A   Mostly Cloudy
12:56 PM 44.1 °F 38.6 °F 32.0 °F 63% 29.93 in 10.0 mi SE 10.4 mph 23.0 mph N/A   Overcast
1:56 PM 41.0 °F 32.8 °F 32.0 °F 70% 29.91 in 10.0 mi SE 16.1 mph 23.0 mph N/A   Overcast
2:56 PM 41.0 °F 33.5 °F 33.1 °F 73% 29.87 in 10.0 mi SE 13.8 mph 24.2 mph N/A   Overcast
3:56 PM 41.0 °F 34.7 °F 33.1 °F 73% 29.83 in 10.0 mi SE 10.4 mph 21.9 mph N/A   Overcast
4:48 PM 42.1 °F 37.1 °F 34.0 °F 73% 29.79 in 10.0 mi SE 8.1 mph - N/A   Overcast
4:56 PM 42.1 °F 37.7 °F 34.0 °F 73% 29.83 in 10.0 mi Variable 6.9 mph - N/A   Overcast
5:56 PM 41.0 °F 36.4 °F 36.0 °F 82% 29.83 in 7.0 mi SSE 6.9 mph - 0.01 in Rain Light Rain
6:25 PM 39.9 °F 34.5 °F 37.0 °F 89% 29.78 in 10.0 mi SE 8.1 mph - 0.01 in Rain Light Rain
6:53 PM 39.2 °F 32.0 °F 35.6 °F 87% 29.76 in 9.0 mi SE 11.5 mph 24.2 mph 0.02 in   Overcast
6:56 PM 39.0 °F 31.4 °F 36.0 °F 89% 29.80 in 7.0 mi SE 12.7 mph - 0.02 in Rain Light Rain
7:56 PM 37.9 °F 30.9 °F 36.0 °F 93% 29.81 in 6.0 mi SE 10.4 mph - 0.06 in Rain Light Rain
8:15 PM 37.9 °F 30.9 °F 36.0 °F 93% 29.76 in 4.0 mi SE 10.4 mph - 0.00 in   Overcast
8:56 PM 37.9 °F 32.1 °F 36.0 °F 93% 29.78 in 5.0 mi SE 8.1 mph - 0.00 in   Overcast
9:21 PM 37.9 °F 32.1 °F 37.0 °F 97% 29.74 in 6.0 mi SE 8.1 mph - 0.01 in   Overcast
9:52 PM 39.2 °F 33.6 °F 37.4 °F 93% 29.73 in 7.0 mi South 8.1 mph - 0.01 in   Overcast
9:56 PM 39.0 °F 33.4 °F 37.9 °F 96% 29.76 in 8.0 mi South 8.1 mph - 0.01 in   Overcast
10:56 PM 42.1 °F 38.4 °F 39.9 °F 92% 29.75 in 8.0 mi SSW 5.8 mph - N/A   Overcast
11:10 PM 43.0 °F 36.0 °F 41.0 °F 93% 29.72 in 4.0 mi SW 13.8 mph 19.6 mph 0.01 in Rain Light Rain
11:23 PM 43.0 °F 36.0 °F 41.0 °F 93% 29.73 in 4.0 mi SW 13.8 mph 21.9 mph 0.03 in Rain Light Rain
11:56 PM 44.1 °F 38.6 °F 41.0 °F 89% 29.74 in 8.0 mi WSW 10.4 mph - 0.04 in   Overcast